Tracking 19908 objects as of 18-Oct-2019
HD Live streaming from Space Station
objects crossing your sky now

GALILEO 22 (2C8)

Track GALILEO 22 (2C8) now!
GALILEO 22 (2C8) is classified as:


NORAD ID: 43058
Int'l Code: 2017-079D
Perigee: 23,210.2 km
Apogee: 23,248.5 km
Inclination: 56.5 °
Period: 844.7 minutes
Semi major axis: 29600 km
RCS: Unknown
Launch date: December 12, 2017
Source: European Space Agency (ESA)
Launch site: FRENCH GUIANA (FRGUI)
aabbcc
Your satellite tracking list
Your tracking list is empty




NASA's NSSDC Master Catalog

Two Line Element Set (TLE):
1 43058U 17079D   19290.83763108  .00000008  00000-0  00000+0 0  9998
2 43058  56.4631 288.4744 0006463 259.0623 100.8668  1.70473857 11485
Source of the keplerian elements: AFSPC